Huron, SD

6:53 AM CST on December 09, 2016 (GMT -0600)
Huron Regional

Weather History for KHON - March, 2014

Change the Weather History Date:

Saturday, March 1, 2014

  Actual Average Record
Temperature  
Mean Temperature -3 °F 27 °F  
Max Temperature 5 °F 37 °F 74 °F (1992)
Min Temperature -12 °F 17 °F -20 °F (2009)
Degree Days  
Heating Degree Days 68 38  
Month to date heating degree days 68 38  
Since 1 July heating degree days 6388 5870  
Cooling Degree Days 0 0  
Month to date cooling degree days 0 0  
Year to date cooling degree days 0 0  
Moisture  
Dew Point -11 °F    
Average Humidity 68    
Maximum Humidity 79    
Minimum Humidity 57    
Precipitation  
Precipitation 0.03 in 0.03 in 0.30 in (1958)
Month to date precipitation 0.03 0.03  
Year to date precipitation 0.59 1.13  
Snow  
Snow 1.00 in 0.30 in 4.90 in (1958)
Month to date snowfall 1.0 0.3  
Since 1 July snowfall 22.7 31.3  
Snow Depth 1.00 in    
Sea Level Pressure  
Sea Level Pressure 30.52 in    
Wind  
Wind Speed 14 mph (North)    
Max Wind Speed 21 mph    
Max Gust Speed 24 mph    
Visibility 5 miles    
Events Snow    
T = Trace of Precipitation, MM = Missing Value Source: NWS Daily Summary

Daily Weather History Graph

Daily Weather History Graph

Search for Another Location

Airport or City:

Trip Planner

Search our weather history database for the weather conditions in past years. The results will help you decide how hot, cold, wet, or windy it might be!

Date:

Astronomy

Mar. 01, 2014 Rise Set
Actual Time 7:10 AM CST 6:21 PM CST
Civil Twilight 6:40 AM CST 6:50 PM CST
Nautical Twilight 6:07 AM CST 7:23 PM CST
Astronomical Twilight 5:33 AM CST 7:57 PM CST
Moon 7:02 AM CST (3/1) 7:13 PM CST (3/1)
Length of Visible Light 12h 09m
Length of Day
11h 10m
New Moon, 0% of the Moon is Illuminated
Mar 1
New Moon
Mar 8
First Quarter
Mar 16
Full
Mar 23
Last Quarter
Mar 30
New

Hourly Weather History & Observations

Time (CST) Temp. Windchill Dew Point Humidity Pressure Visibility Wind Dir Wind Speed Gust Speed Precip Events Conditions
12:55 AM 3.9 °F -13.7 °F -2.0 °F 76% 30.41 in 10.0 mi North 13.8 mph - N/A   Overcast
1:41 AM 3.9 °F -11.3 °F -0.9 °F 80% 30.31 in 2.0 mi NNE 10.4 mph - 0.00 in Snow Light Snow
1:46 AM 3.9 °F -12.2 °F -0.9 °F 80% 30.32 in 1.2 mi NNE 11.5 mph - 0.00 in Snow Light Snow
1:55 AM 3.0 °F -11.5 °F -2.0 °F 80% 30.41 in 1.0 mi NNE 9.2 mph - 0.00 in Snow Light Snow
2:05 AM 3.0 °F -12.5 °F -2.0 °F 80% 30.32 in 3.0 mi NNE 10.4 mph - 0.00 in Snow Light Snow
2:26 AM 3.0 °F -10.5 °F -2.0 °F 80% 30.34 in 5.0 mi North 8.1 mph - 0.00 in Snow Light Snow
2:55 AM 3.0 °F -13.3 °F -2.9 °F 76% 30.42 in 8.0 mi NNE 11.5 mph - 0.00 in   Overcast
3:08 AM 1.9 °F -14.7 °F -4.0 °F 76% 30.33 in 4.0 mi North 11.5 mph - N/A   Haze
3:48 AM 1.9 °F -16.2 °F -4.0 °F 76% 30.32 in 2.0 mi North 13.8 mph - 0.00 in Snow Light Snow
3:55 AM 1.9 °F -13.8 °F -4.0 °F 76% 30.42 in 2.0 mi NNE 10.4 mph - 0.00 in Snow Light Snow
4:08 AM 1.0 °F -15.8 °F -5.1 °F 75% 30.34 in 3.0 mi NNE 11.5 mph - 0.00 in Snow Light Snow
4:20 AM 1.0 °F -16.6 °F -6.0 °F 72% 30.34 in 2.5 mi NNE 12.7 mph - 0.00 in Snow Light Snow
4:34 AM 1.0 °F -16.6 °F -6.0 °F 72% 30.36 in 3.0 mi North 12.7 mph - 0.00 in Snow Light Snow
4:55 AM 1.0 °F -17.3 °F -7.1 °F 69% 30.46 in 3.0 mi NNE 13.8 mph - 0.00 in Snow Light Snow
5:04 AM -0.0 °F -18.7 °F -7.1 °F 72% 30.36 in 4.0 mi NNE 13.8 mph - 0.01 in Snow Light Snow
5:55 AM -0.0 °F -14.2 °F -7.1 °F 72% 30.48 in 5.0 mi NNE 8.1 mph - 0.01 in Snow Light Snow
6:30 AM -0.9 °F -20.6 °F -9.0 °F 69% 30.41 in 2.0 mi North 15.0 mph - 0.00 in Snow Light Snow
6:42 AM -0.9 °F -19.9 °F -8.0 °F 72% 30.41 in 1.5 mi North 13.8 mph - 0.00 in Snow Light Snow
6:55 AM -2.0 °F -21.9 °F -8.0 °F 76% 30.52 in 1.5 mi North 15.0 mph - 0.00 in Snow Light Snow
7:55 AM -2.9 °F -23.1 °F -9.0 °F 75% 30.55 in 2.0 mi North 15.0 mph - 0.01 in Snow Light Snow
8:27 AM -2.9 °F -23.1 °F -9.9 °F 72% 30.48 in 2.5 mi North 15.0 mph - 0.01 in Snow Light Snow
8:36 AM -2.9 °F -23.8 °F -9.9 °F 72% 30.48 in 3.0 mi North 16.1 mph - 0.01 in Snow Light Snow
8:55 AM -2.9 °F -23.8 °F -9.9 °F 72% 30.59 in 3.0 mi North 16.1 mph - 0.01 in Snow Light Snow
9:02 AM -2.9 °F -23.1 °F -9.9 °F 72% 30.48 in 2.5 mi North 15.0 mph - 0.00 in Snow Light Snow
9:10 AM -2.9 °F -22.4 °F -9.9 °F 72% 30.48 in 3.0 mi North 13.8 mph - 0.00 in Snow Light Snow
9:55 AM -2.9 °F -22.4 °F -11.9 °F 65% 30.61 in 3.0 mi North 13.8 mph - 0.00 in Snow Light Snow
10:17 AM -2.9 °F -21.6 °F -11.9 °F 65% 30.52 in 4.0 mi North 12.7 mph - 0.00 in Snow Light Snow
10:45 AM -2.9 °F -22.4 °F -11.0 °F 68% 30.52 in 2.5 mi North 13.8 mph - 0.00 in Snow Light Snow
10:53 AM -2.2 °F -21.5 °F -11.2 °F 66% 30.51 in 4.0 mi North 13.8 mph - 0.00 in   Haze
10:55 AM -2.0 °F -21.9 °F -11.0 °F 66% 30.62 in 5.0 mi North 15.0 mph - 0.00 in   Haze
11:55 AM -2.9 °F -23.1 °F -11.9 °F 65% 30.63 in 4.0 mi North 15.0 mph - 0.00 in Snow Light Snow
12:23 PM -2.0 °F -20.5 °F -11.9 °F 63% 30.52 in 5.0 mi North 12.7 mph - 0.00 in   Haze
12:33 PM -2.9 °F -23.1 °F -11.9 °F 65% 30.50 in 2.5 mi North 15.0 mph - 0.00 in Snow Light Snow
12:55 PM -2.9 °F -24.4 °F -13.0 °F 62% 30.61 in 2.0 mi North 17.3 mph - 0.00 in Snow Light Snow
1:09 PM -2.9 °F -23.1 °F -13.0 °F 62% 30.52 in 3.0 mi NNW 15.0 mph - 0.00 in Snow Light Snow
1:55 PM -2.9 °F -23.1 °F -13.0 °F 62% 30.61 in 4.0 mi North 15.0 mph - 0.00 in Snow Light Snow
2:55 PM -2.9 °F -25.6 °F -13.0 °F 62% 30.62 in 7.0 mi NNW 19.6 mph - 0.00 in   Overcast
3:34 PM -2.9 °F -23.8 °F -15.0 °F 56% 30.51 in 9.0 mi North 16.1 mph - 0.00 in   Overcast
3:55 PM -4.0 °F -25.2 °F -15.0 °F 59% 30.63 in 8.0 mi NNW 16.1 mph - 0.00 in   Overcast
4:55 PM -5.1 °F -26.6 °F -16.1 °F 59% 30.64 in 10.0 mi North 16.1 mph - 0.00 in   Overcast
5:55 PM -7.1 °F -29.1 °F -18.9 °F 56% 30.66 in 10.0 mi NNW 16.1 mph - N/A   Overcast
6:55 PM -7.1 °F -29.1 °F -18.0 °F 59% 30.67 in 10.0 mi NNW 16.1 mph - 0.00 in   Mostly Cloudy
7:55 PM -9.0 °F -30.9 °F -20.0 °F 59% 30.69 in 10.0 mi NNW 15.0 mph - N/A   Clear
8:55 PM -9.9 °F -28.6 °F -20.9 °F 59% 30.71 in 10.0 mi NNW 10.4 mph - N/A   Scattered Clouds
9:55 PM -9.9 °F -27.5 °F -20.9 °F 59% 30.71 in 10.0 mi NNW 9.2 mph - N/A   Clear
10:55 PM -11.0 °F -29.9 °F -22.0 °F 58% 30.71 in 10.0 mi NNW 10.4 mph - N/A   Clear
11:55 PM -11.9 °F -28.7 °F -22.0 °F 61% 30.71 in 10.0 mi NNW 8.1 mph - N/A   Clear